Location: Prostejov
(49.4670°N, 17.1170°E)
Time: 18:33:48
(UTC+01:00)

ISS - Visible Passes

Search period start: 21 March 2019 00:00
Search period end: 31 March 2019 00:00
Orbit: 406 x 411 km, 51.6° (Epoch: 21 March)

Date Brightness Start Highest point End Pass type
(mag) Time Alt. Az. Time Alt. Az. Time Alt. Az.
21 Mar -0.9 20:28:45 10° SW 20:28:52 11° SW 20:28:52 11° SW visible
22 Mar -2.8 19:38:02 10° SSW 19:40:42 29° SSE 19:40:42 29° SSE visible
23 Mar -2.2 18:47:37 10° S 18:50:02 19° SE 18:52:19 11° E visible
23 Mar -2.7 20:22:56 10° WSW 20:25:05 38° WSW 20:25:05 38° WSW visible
24 Mar -3.7 19:31:56 10° SW 19:35:10 55° SSE 19:36:30 30° E visible
24 Mar -1.0 21:08:28 10° W 21:09:16 16° W 21:09:16 16° W visible
25 Mar -3.1 18:41:04 10° SW 18:44:08 36° SSE 18:47:13 10° E visible
25 Mar -3.6 20:17:17 10° W 20:20:31 70° NNW 20:20:31 70° NNW visible
26 Mar -3.9 19:26:07 10° WSW 19:29:26 88° NNW 19:31:39 19° ENE visible
26 Mar -1.5 21:02:54 10° WNW 21:04:24 24° WNW 21:04:24 24° WNW visible
27 Mar -3.4 20:11:41 10° W 20:14:58 57° N 20:15:26 50° NE visible
28 Mar -3.5 19:20:27 10° W 19:23:44 64° N 19:26:23 15° ENE visible
28 Mar -1.9 20:57:13 10° WNW 20:59:07 31° WNW 20:59:07 31° WNW visible
29 Mar -3.4 20:06:01 10° WNW 20:09:17 58° N 20:10:01 44° NE visible
29 Mar -0.4 21:42:39 10° WNW 21:42:44 11° WNW 21:42:44 11° WNW visible
30 Mar -3.3 19:14:47 10° W 19:18:03 56° N 19:20:53 13° ENE visible
30 Mar -2.4 20:51:27 10° WNW 20:53:37 38° WNW 20:53:37 38° WNW visible
